Terminal Aerodrome Forecast
Issued by NWS Grand Forks, ND

Home | Current Version | Previous Version | Text Only | Print | Product List | Glossary Off
Versions: 1 2 3 4 5 6 7 8 9 10 11 12 13 14 15 16 17 18 19 20

000
FTUS43 KFGF 011100
TAFGFK
TAF
KGFK 011122Z 0112/0212 21012KT P6SM BKN025
     FM011600 21017G25KT P6SM BKN035
     FM012300 26007KT P6SM BKN050=

USA.gov is the U.S. government's official web portal to all federal, state and local government web resources and services.